Regional Weather Roundup
Issued by NWS Cleveland, OH

Home | Current Version | Previous Version | Graphics & Text | Print | Product List | Glossary On
Versions: 1 2 3 4 5 6 7 8 9 10 11 12 13 14 15 16 17 18 19 20 21 22 23 24 25 26 27 28 29 30 31 32 33 34 35 36 37 38 39 40 41 42 43 44 45 46 47 48 49 50
000
ASUS41 KCLE 012300
RWRCLE
OHIO REGIONAL WEATHER ROUNDUP
NATIONAL WEATHER SERVICE WILMINGTON, OH
600 PM EST SUN FEB 01 2015

NOTE: "FAIR" INDICATES FEW OR NO CLOUDS BELOW 12,000 FEET WITH NO
SIGNIFICANT WEATHER AND/OR OBSTRUCTIONS TO VISIBILITY.

OHZ001>008-015>018-024>027-034-035-043-044-020000-
   NORTHWEST OHIO

CITY           SKY/WX    TMP DP  RH WIND       PRES   REMARKS
DEFIANCE       SNOW      27  24  89 NE18G25   29.67F VSB 1/4 WCI  14
FINDLAY        LGT SNOW  34  31  88 NE10      29.64F FOG     WCI  26
TOLEDO EXPRESS SNOW      24  22  91 NE25G32   29.71F VSB 1/4 WCI   8
TOLEDO EXEC    SNOW      26  22  84 NE21G30   29.74F VSB 1/4 WCI  12
LIMA           LGT RAIN  35  32  88 E9        29.60F FOG     WCI  28
$$

OHZ009>014-019>023-028>033-038-089-020000-
   NORTHEAST OHIO

CITY           SKY/WX    TMP DP  RH WIND       PRES   REMARKS
CLE-HOPKINS    LGT SNOW  32  30  92 E9        29.74F VSB 3/4 WCI  24
CLE-LAKEFRONT  LGT SNOW  32  29  88 E7        29.73F VSB 1   WCI  26
CUY CO. ARPT   LGT SNOW  32  32 100 E14       29.76F VSB 3/4 WCI  22
LORAIN-ELYRIA  LGT SNOW  32  31  96 SE10      29.71F VSB 1   WCI  24
ASHTABULA      LGT SNOW  27  24  89 NE5       29.82F FOG     WCI  22
AKRON-CANTON   LGT SNOW  34  31  88 SE12      29.72F VSB 1   WCI  25
WOOSTER        NOT AVBL
MANSFIELD      LGT SNOW  34  33  96 SE12      29.65F FOG     WCI  25
YOUNGSTOWN     LGT SNOW  30  28  92 E12       29.78F VSB 3/4 WCI  20
$$

OHZ042-051>053-060>062-070>072-077>081-020000-
  SOUTHWEST OHIO

CITY           SKY/WX    TMP DP  RH WIND       PRES   REMARKS
CINC-COVINGTON LGT RAIN  44  42  93 S14       29.59F FOG
CINC-LUNKEN    LGT RAIN  42  41  96 S10       29.62F FOG
HAMILTON       LGT RAIN  43  42  97 CALM      29.60F FOG
DAYTON         RAIN      41  40  96 S13       29.60F FOG
WRIGHT-PAT AFB NOT AVBL
DAYTON GENERAL LGT RAIN  40  39  97 S10       29.58F FOG
WILMINGTON     CLOUDY    39  36  89 S14       29.60F FOG
$$

OHZ036-037-039>041-045>050-054>059-063>069-073>076-082>088-020000-
  CENTRAL AND SOUTHEAST OHIO

CITY           SKY/WX    TMP DP  RH WIND       PRES   REMARKS
COLUMBUS       CLOUDY    35  33  92 SE12      29.66F FOG     WCI  27
OSU AIRPORT    CLOUDY    36  33  89 SE13      29.63F FOG
BOLTON FIELD   DRIZZLE   36  34  93 SE10      29.65F
RICKENBACK AFB NOT AVBL
NEWARK         LGT RAIN  36  33  89 SE10G17   29.67F FOG
MARION         CLOUDY    35  33  92 S16G23    29.63F FOG     WCI  25
LANCASTER      CLOUDY    37  34  89 SE12      29.67F
ZANESVILLE     LGT RAIN  35  33  92 SE9       29.71F FOG     WCI  28
NEW PHILLY     LGT RAIN  36  33  89 SE8       29.74F FOG
$$


USA.gov is the U.S. government's official web portal to all federal, state and local government web resources and services.